Location: Unspecified
(0.0000°N, 0.0000°E)
Time: 08:11:34
(UTC+00:00)

Vanguard 1 - Visible Passes

Search period start: 08 February 2023 00:00
Search period end: 18 February 2023 00:00
Orbit: 650 x 3831 km, 34.2° (Epoch: 07 February)

Date Brightness Start Highest point End Pass type
(mag) Time Alt. Az. Time Alt. Az. Time Alt. Az.
08 Feb 12.4 21:04:30 10° SSW 21:08:03 16° S 21:08:03 16° S visible
09 Feb 13.0 19:03:12 10° S 19:05:45 11° S 19:08:02 10° SSE visible
09 Feb 12.5 21:24:22 10° SSW 21:27:31 18° SSW 21:27:31 18° SSW visible
10 Feb 12.7 19:22:40 10° SSW 19:27:56 13° S 19:32:08 10° SE visible
10 Feb 12.6 21:44:37 10° SW 21:47:00 18° SSW 21:47:00 18° SSW visible
11 Feb 12.3 19:42:37 10° SSW 19:49:52 18° SSE 19:53:49 13° SE visible
11 Feb 12.8 22:05:11 10° SW 22:06:31 14° SW 22:06:31 14° SW visible
12 Feb 11.9 20:02:48 10° SSW 20:11:32 24° SSE 20:13:21 22° SE visible
13 Feb 11.6 20:23:10 10° SW 20:32:54 33° SSE 20:32:54 33° SSE visible
14 Feb 11.4 20:43:44 10° SW 20:52:29 43° S 20:52:29 43° S visible
15 Feb 12.4 18:39:49 10° SSW 18:51:11 24° SSE 18:58:34 10° ESE visible
15 Feb 11.5 21:04:35 10° SW 21:12:06 44° SW 21:12:06 44° SW visible
16 Feb 12.0 19:00:27 10° SW 19:12:57 31° SSE 19:19:03 16° ESE visible
16 Feb 11.9 21:25:44 10° WSW 21:31:45 34° WSW 21:31:45 34° WSW visible
17 Feb 11.5 19:21:09 10° SW 19:34:27 42° SSE 19:38:43 27° ESE visible
17 Feb 12.4 21:47:16 10° WSW 21:51:25 24° W 21:51:25 24° W visible
